User: anonymous   Login
Location: Unspecified
(0.0000°N, 0.0000°E)
Time: 14:52:39
(UTC+00:00)
Language:

LISHUI 1-01 - Orbit

View from above orbital plane
View from above orbital plane
View from above satellite
View from above satellite

Ground track
Ground track

The orbit data is extracted from the following two-line orbital elements,

1 41845U 16066E   17352.04672819  .00000165  00000-0  34815-4 0  9993
2 41845  98.7678  11.9867 0367593  62.5014 301.3033 14.37840722 57915
Epoch (UTC): 18 December 2017 01:07:17
Eccentricity: 0.0367593
inclination: 98.7678°
perigee height: 503 km
apogee height: 1028 km
right ascension of ascending node: 11.9867°
argument of perigee: 62.5014°
revolutions per day: 14.37840722
mean anomaly at epoch: 301.3033°
orbit number at epoch: 5791

The dashed part of the orbit path shows where the satellite is in the earth's shadow,  

DLR